Theta_e
312 317 324 328 330 331 333 332 330 330 328 327 327 327 328 327 327 327 327 326 326 326 327 325 325 324 320 321 321 317 319 319
325 325 327 329 330 331 332 330 330 327 326 326 326 328 327 327 326 326 325 325 324 326 325 324 323 325 319 320 319 317 317 318
324 324 325 327 327 328 329 329 328 326 325 324 324 326 326 326 327 328 325 325 324 324 323 321 323 320 317 317 317 316 317 318
323 323 323 324 325 326 327 327 325 325 325 324 324 325 326 326 326 326 325 325 324 324 321 320 318 318 316 315 316 317 316 317
320 324 322 324 324 323 326 324 324 325 325 325 325 324 325 325 326 326 326 325 322 321 322 322 317 315 314 314 316 317 316 316
318 324 324 324 322 323 323 322 324 325 324 323 322 322 323 325 325 326 323 322 321 321 321 318 314 313 313 314 315 317 317 317
318 323 324 322 321 321 321 321 323 324 322 322 321 320 324 324 325 324 320 319 318 319 318 314 314 314 313 313 315 317 317 317
321 323 322 322 321 321 320 321 322 322 322 321 321 322 323 324 324 323 322 321 320 317 316 315 315 315 314 313 314 316 317 317
321 323 321 322 321 320 321 321 321 321 321 320 321 322 324 324 323 323 322 322 321 318 316 315 315 318 319 317 316 316 316 316
321 323 321 322 321 320 320 320 320 319 321 320 321 322 323 324 324 322 322 322 322 322 322 318 312 310 317 319 318 317 316 316
322 322 320 321 321 321 320 319 319 319 319 319 320 321 322 323 323 322 321 322 322 322 320 318 317 316 315 319 320 319 317 317
324 323 321 320 320 320 320 320 319 320 320 320 320 320 320 321 322 322 321 322 322 321 321 320 319 317 317 318 319 318 318 317
321 323 322 321 320 321 320 320 320 320 322 320 320 320 320 320 321 321 321 321 321 321 320 320 320 320 320 320 319 319 318 318
317 321 324 323 322 321 320 320 322 322 322 321 320 320 319 319 320 320 320 320 320 320 320 319 320 320 320 320 319 320 320 320
316 317 319 320 323 322 321 321 320 321 322 322 321 320 319 319 319 319 319 319 319 318 318 318 318 318 319 319 319 319 319 319
317 316 314 315 315 319 322 321 321 321 320 322 322 322 321 319 318 318 318 318 318 319 318 317 318 317 317 317 317 317 317 316
316 315 313 312 311 311 312 315 321 321 320 320 321 322 321 321 320 318 317 317 316 317 317 317 317 316 317 317 316 315 315 316
313 313 312 309 307 307 308 310 313 320 320 320 320 321 322 321 320 320 318 317 317 315 315 316 316 317 316 316 315 315 315 315
309 308 308 304 302 302 304 307 309 313 320 321 320 320 320 321 320 319 318 318 317 317 317 316 315 315 315 315 315 315 314 312
Wind_Speed
13 20 24 27 31 29 32 32 28 23 21 18 19 19 21 23 28 29 30 34 39 41 32 35 39 40 37 40 41 31 29 29
4 10 17 23 27 31 34 33 27 25 22 22 21 20 20 23 24 24 32 33 39 40 37 40 40 40 40 44 41 34 28 33
5 10 16 19 19 27 33 31 29 28 23 24 17 19 17 21 16 23 32 29 40 32 42 40 42 38 40 43 39 31 27 35
8 9 15 19 23 25 29 31 28 29 26 22 14 16 11 15 16 22 29 30 37 40 42 40 40 41 42 43 45 34 25 31
8 10 11 22 19 22 29 27 21 28 26 23 20 14 9 15 16 16 28 32 37 39 40 39 39 38 40 41 43 34 34 27
12 13 15 22 23 29 29 24 22 26 25 20 17 13 16 12 18 16 28 36 39 39 39 37 37 38 41 41 44 33 38 31
10 7 15 18 21 24 25 23 24 24 22 17 18 14 15 14 16 17 25 29 29 39 36 36 35 37 41 43 44 35 38 36
6 9 12 19 24 24 23 24 23 24 21 17 17 17 15 20 19 20 21 26 28 33 34 32 32 33 38 40 43 39 34 36
8 5 5 13 20 22 22 24 21 21 21 20 16 16 16 19 21 25 20 26 30 37 36 35 32 26 29 33 36 34 33 31
15 4 5 13 17 19 19 20 19 21 22 20 18 16 16 18 19 24 27 23 30 36 37 38 41 38 30 27 27 25 26 25
15 7 4 12 16 18 18 17 15 15 15 14 18 16 15 17 19 21 25 28 30 32 33 35 38 41 44 40 34 32 29 28
19 4 5 10 14 17 17 16 14 13 14 19 16 15 13 15 18 20 23 26 29 32 36 37 37 39 41 38 33 35 37 33
15 7 4 8 13 14 13 12 12 13 14 18 19 19 18 16 16 20 21 23 24 28 28 31 36 36 36 38 36 34 36 35
15 13 7 1 8 13 16 15 14 13 17 17 17 18 19 20 19 19 20 22 25 28 29 29 30 39 36 35 38 37 35 38
11 12 12 13 3 8 15 18 19 19 18 19 19 19 19 20 22 22 22 22 24 25 29 31 31 29 34 34 34 33 34 34
9 9 8 11 17 14 2 11 18 22 21 23 24 23 22 20 18 23 24 23 25 27 27 28 30 30 29 29 29 32 32 29
3 7 9 10 15 17 17 12 14 20 24 25 25 24 24 25 23 21 23 25 26 25 26 27 29 30 32 31 32 35 32 31
8 8 9 14 17 16 16 17 12 13 20 22 24 26 25 26 26 25 24 25 25 26 27 28 29 31 31 30 30 31 32 30
9 9 12 16 19 23 25 13 14 8 8 18 23 25 24 26 26 26 26 26 28 27 28 28 29 29 29 28 28 27 26 23
Wind_Direction
277 250 226 212 209 202 195 192 194 198 200 199 209 207 211 218 219 216 220 224 217 204 192 194 194 182 179 176 178 179 179 178
289 211 198 190 196 191 190 190 191 192 191 190 198 199 206 214 219 229 225 221 206 194 186 189 192 192 183 184 176 175 173 175
238 193 183 180 186 184 186 190 191 194 188 194 197 199 210 215 226 227 212 203 203 181 186 184 187 181 178 179 172 164 168 175
227 201 194 185 185 187 184 192 195 197 197 183 189 196 194 207 223 206 200 197 185 190 182 177 176 178 176 174 175 169 164 174
239 197 192 196 193 178 189 194 192 200 195 187 197 192 192 213 210 213 202 196 179 179 185 186 177 176 175 172 176 175 170 170
240 210 202 187 182 183 187 187 197 199 199 198 212 208 219 220 222 219 187 181 179 181 185 181 176 177 179 175 180 178 181 174
238 179 169 176 177 174 175 182 193 197 199 200 210 203 212 199 200 188 169 161 162 174 178 175 175 177 181 182 185 184 187 185
264 178 179 173 178 174 174 179 181 194 196 203 215 213 201 182 187 175 159 159 155 158 164 170 176 181 184 187 192 195 195 197
298 239 194 183 187 173 175 176 178 188 189 207 212 211 200 182 187 185 164 164 166 167 167 171 176 179 186 190 192 198 201 202
337 260 174 185 185 173 178 181 184 190 190 204 202 197 195 191 178 185 181 166 163 175 183 186 186 190 197 200 194 197 202 202
346 282 165 173 170 167 171 180 186 193 191 201 198 193 189 184 178 175 177 183 182 179 177 178 182 188 192 206 209 210 205 208
358 50 130 137 144 158 163 174 181 185 189 204 208 198 193 189 183 184 187 185 184 185 187 183 182 187 194 199 197 200 200 200
14 18 76 128 130 140 164 166 178 186 192 209 208 207 201 197 193 190 193 195 200 193 182 180 185 191 189 193 192 200 203 207
10 12 22 149 148 149 159 175 185 195 204 201 203 203 203 203 197 201 200 200 199 200 200 189 190 191 196 198 202 208 208 213
4 6 14 5 327 170 172 188 195 196 199 207 204 205 206 209 205 202 205 207 203 200 197 192 190 187 193 198 200 205 212 216
2 7 6 355 15 25 244 210 205 205 201 200 201 209 216 214 208 207 208 206 208 214 211 206 206 200 199 204 207 213 216 217
54 14 357 9 15 359 353 341 231 214 209 208 211 205 203 213 215 214 212 213 213 212 211 212 208 211 218 222 223 223 224 223
13 19 26 3 359 355 337 321 329 236 211 210 209 207 205 204 210 214 215 215 217 218 218 219 222 224 225 226 225 228 225 220
12 8 15 11 359 354 342 337 359 15 242 206 206 206 206 204 202 200 209 213 212 217 221 224 227 231 234 231 228 228 226 219